Retour au catalogue

STARLINK-32822

ActifCommunicationsVLEO
NORAD 62868·PAYLOAD·🇺🇸 United States

Lancé Feb 1, 2025 depuis Vandenberg Space Force Base

Loading…

Prochains Passages (prochaines 24 heures)

TLE

FraisSource: CelesTrak SupGP

Époque: Sep 14, 2026, 21:13 UTC

1 62868C 25022Q   26257.88451389 -.00016417  00000+0 -48533-3 0  2572
2 62868  53.1586 327.6975 0001039  86.4271 171.7999 15.34381108    18

Suivez STARLINK-32822 en temps réel avec AllMySat

Download on the App Store